Flag for Jordan Weather past 2 weeks in Madaba, Jordan

Now
61 °F

Scattered clouds.


Feels Like: 61 °F
Forecast: 48 / 59 °F
Wind: 12 mph from Northwest

Location: Queen Alia Airport

Current Time: Mar 31, 2015 at 8:02:44 PM

Latest Report: Mar 31, 2015 at 7:00 PM


Visibility: 5 mi

Pressure: 29.98 "Hg

Humidity: 36%

Dew point: 34 °F

Location of MadabaLocation

Historic Weather in Madaba — Graph

°F

Madaba temperature yesterday

Maximum temperature yesterday: 68 °F (at 3:00 PM)
Minimum temperature yesterday: 39 °F (at 6:00 AM)
Average temperature yesterday: 55 °F

Past Weeks' High & Low Weather Summary

 TemperatureHumidityPressure
High81 °F (Mar 27, 3:00 PM)100% (Mar 23, 6:00 AM)30.15 "Hg (Mar 23, 6:00 AM)
Low30 °F (Mar 23, 5:00 AM)13% (Mar 24, 12:00 PM)29.80 "Hg (Mar 29, 4:00 PM)
Average55 °F59%30.02 "Hg
* Reported Mar 16 6:00 PM — Mar 31 7:00 PM, Madaba, Weather by CustomWeather, © 2015

Note: Actual official high and low records may vary slightly from our data, if they occured in-between our weather recording intervals... More about our weather records

Advertising

Madaba weather history for previous 24 hours

 ConditionsComfort  
Time TempWeatherWind HumidityBarometerVisibility
7:00 PM
Tue, Mar 31
61 °FScattered clouds.12 mph36%29.98 "Hg5 mi
6:00 PM63 °FScattered clouds.12 mph34%29.98 "Hg5 mi
3:00 PM66 °FScattered clouds.12 mph30%29.98 "Hg5 mi
2:00 PM66 °FScattered clouds.12 mph35%30.01 "Hg4 mi
1:00 PM63 °FScattered clouds.12 mph45%30.01 "Hg4 mi
12:00 PM59 °FScattered clouds.9 mph51%30.04 "Hg4 mi
11:00 AM59 °FScattered clouds.7 mph59%30.04 "Hg4 mi
10:00 AM55 °FPartly sunny.7 mph67%30.07 "Hg4 mi
9:00 AM54 °FScattered clouds.7 mph77%30.04 "Hg4 mi
8:00 AM46 °FPartly sunny.No wind87%30.04 "Hg4 mi
7:00 AM41 °FPassing clouds.No wind93%30.01 "Hg4 mi
6:00 AM41 °FPassing clouds.No wind93%30.01 "Hg4 mi
4:00 AM43 °FPassing clouds.No wind93%30.01 "Hg4 mi
3:00 AM43 °FPassing clouds.No wind93%30.01 "Hg4 mi
2:00 AM45 °FPassing clouds.9 mph87%30.01 "Hg4 mi
1:00 AM46 °FPassing clouds.9 mph87%30.01 "Hg4 mi
12:00 AM50 °FPassing clouds.12 mph76%30.01 "Hg4 mi
11:00 PM
Mon, Mar 30
50 °FPassing clouds.7 mph76%30.01 "Hg4 mi
10:00 PM52 °FPassing clouds.16 mph77%30.01 "Hg4 mi
9:00 PM52 °FPassing clouds.14 mph72%30.01 "Hg4 mi
8:00 PM54 °FPassing clouds.18 mph72%29.98 "Hg4 mi
Weather by CustomWeather, © 2015

See weather overviewHow to use our weather pages